{"data":{"norad_id":53508,"intl_designator":"2022-099AV","name":"STARLINK-4443","alt_names":[],"object_type":"PAYLOAD","status":"ACTIVE","operator":null,"country":"US","launch_date":"2022-08-12","launch_site_code":"AFWTR","launch_vehicle":null,"mission":null,"orbit_class":"UNKNOWN","rcs_meters":null,"size_class":null,"mass_kg":null,"dimensions":null,"purposes":["comms"],"wikipedia_slug":null,"has_3d_model":false,"image_url":null,"decayed_at":null,"tle_current":{"epoch":"2026-09-20T05:38:21.869376Z","epoch_age_seconds":101078,"freshness":"FRESH","line1":"1 53508U 22099AV  26263.23497534  .00000097  00000+0  53405-5 0  9996","line2":"2 53508  97.2852  20.9144 0001703  88.9605 271.1833 15.33435948225518","mean_motion":15.33435948,"eccentricity":0.0001703,"inclination_deg":97.2852,"raan_deg":20.9144,"arg_perigee_deg":88.9605,"mean_anomaly_deg":271.1833,"bstar":5.3405e-6,"rev_number":22551,"period_min":93.906758992975,"perigee_km":464.40462367367,"apogee_km":466.73559031432,"semimajor_km":6843.707106994,"source":"CELESTRAK","updated_at":"2026-09-21T09:00:32.897249Z"}}}